Weather Roundup
Issued by NWS Chicago, IL

Home | Current Version | Previous Version | Text Only | Print | Product List | Glossary On
Versions: 1 2 3 4 5 6 7 8 9 10 11 12 13 14 15 16 17 18 19 20 21 22 23 24 25 26 27 28 29 30 31 32 33 34 35 36 37 38 39 40 41 42 43 44 45 46 47 48 49 50
000
NZUS59 KLOT 280910
HRRLOT

CHICAGO AREA WEATHER ROUNDUP
NATIONAL WEATHER SERVICE CHICAGO/ROMEOVILLE IL
300 AM CST WED JAN 28 2015

NOTE: "FAIR" INDICATES FEW OR NO CLOUDS BELOW 12,000 FEET WITH NO
SIGNIFICANT WEATHER AND/OR OBSTRUCTIONS TO VISIBILITY.

* THESE STATIONS ARE NOT UNDER NWS QUALITY CONTROL. THEY ALSO MAY NOT
  REPORT WEATHER SUCH AS PRECIPITATION OR FOG.

ILZ005-006-012>014-019>023-281000-
NORTHEAST ILLINOIS

CITY           SKY/WX    TMP DP  RH WIND       PRES   REMARKS
OHARE          MOCLDY    23  19  85 CALM      30.26S
MIDWAY         PTCLDY    26  20  77 SW3       30.28R
AURORA         CLOUDY    21  16  81 CALM      30.27S
LANSING*       PTCLDY    20  18  93 CALM      30.29R
JOLIET*        PTCLDY    17  15  93 CALM      30.29S
WAUKEGAN       MOCLDY    20  16  84 CALM      30.26S
DUPAGE AIRPORT MOCLDY    20  16  84 CALM      30.25F
WHEELING       MOCLDY    22  19  89 CALM      30.28S
KANKAKEE*      PTCLDY    17  16  93 CALM      30.29S
MORRIS*        CLOUDY    22  19  89 E3        30.27R
LEWIS AIRPORT* MOCLDY    21  18  88 SE3       30.27F
NORTHERLY IS     N/A     28  20  71 CALM        N/A
$$

WIZ051-052-058>065-066-070>072-281000-
SOUTHEAST WISCONSIN

CITY           SKY/WX    TMP DP  RH WIND       PRES   REMARKS
MILWAUKEE      PTCLDY    24  16  71 CALM      30.27R
KENOSHA*       PTCLDY    20  16  84 CALM      30.26S
RACINE*        PTCLDY    23  17  78 W3        30.29R
BURLINGTON     PTCLDY    19  16  87 CALM      30.26S
WAUKESHA       CLOUDY    21  18  86 CALM      30.25F
WEST BEND      PTCLDY    21  18  86 CALM      30.24F
$$

INZ001>003-010>013-019-020-281000-
NORTHWEST INDIANA

CITY           SKY/WX    TMP DP  RH WIND       PRES   REMARKS
GARY*          PTCLDY    22  14  72 CALM      30.30R
MICHIGAN CITY* NOT AVBL
RENSSELAER*    NOT AVBL
VALPARAISO     MOCLDY    18  13  80 CALM      30.29R
$$

LMZ740>746-281000-
SOUTHERN LAKE MICHIGAN

STATION/POSITION TIME  SKY/WX   TEMP WIND        PRES    VSBY
                                AIR  DIR/SP/G
                 (UTC)          (F)  (DEG/KT/KT) (MB)    (MI)
HARRISON CRIB    0900            28  190/  2/  3   N/A
BURNHAM HARBOR   0900            28  260/  2/  3   N/A
CALUMET HARBOR   0900            25  170/  4/  6   N/A
BURNS HARBOR     NOT AVBL
MICHIGAN CITY    0900            22  130/  5/  6   N/A
$$

ABBREVIATIONS USED IN REMARKS
   TC - TEMPERATURE IN CELSIUS
  WCI - WIND CHILL INDEX
   HX - HEAT INDEX
  VSB - VISIBILITY
$$


USA.gov is the U.S. government's official web portal to all federal, state and local government web resources and services.